Weather History for KCFS - January, 2013

Change the Weather History Date:

Thursday, January 3, 2013

  Actual Average (KMBS) Record (KMBS)
Temperature  
Mean Temperature 24 °F 23 °F  
Max Temperature 28 °F 30 °F 55 °F (2004)
Min Temperature 21 °F 17 °F -7 °F (2014)
Degree Days  
Heating Degree Days 40    
Month to date heating degree days  
Since 1 July heating degree days  
Cooling Degree Days 0    
Month to date cooling degree days  
Year to date cooling degree days  
Moisture  
Dew Point 19 °F    
Average Humidity 77    
Maximum Humidity 86    
Minimum Humidity 67    
Precipitation  
Precipitation 0.00 in 0.06 in 0.36 in (1999)
Month to date precipitation 0.19  
Year to date precipitation 0.19  
Snow  
Snow 0.00 in - - ()
Month to date snowfall  
Since 1 July snowfall  
Snow Depth -    
Sea Level Pressure  
Sea Level Pressure 30.05 in    
Wind  
Wind Speed 9 mph (SW)    
Max Wind Speed 15 mph    
Max Gust Speed 20 mph    
Visibility 8 miles    
Events Snow    
T = Trace of Precipitation, MM = Missing Value Source: NWS Daily Summary

Daily Weather History Graph

Daily Weather History Graph

Search for Another Location

Airport or City:

Trip Planner

Search our weather history database for the weather conditions in past years. The results will help you decide how hot, cold, wet, or windy it might be!

Date:

Astronomy

Jan. 03, 2013 Rise Set
Actual Time 8:06 AM EST 5:10 PM EST
Civil Twilight 7:34 AM EST 5:42 PM EST
Nautical Twilight 6:58 AM EST 6:18 PM EST
Astronomical Twilight 6:23 AM EST 6:53 PM EST
Moon 11:57 PM EST (1/3) 11:06 AM EST (1/3)
Length of Visible Light 10h 08m
Length of Day
9h 03m
Waning Gibbous, 65% of the Moon is Illuminated
Jan 3
Waning Gibbous
Jan 4
Last Quarter
Jan 11
New
Jan 18
First Quarter
Jan 26
Full

Hourly Weather History & Observations

Time (EST) Temp. Windchill Dew Point Humidity Pressure Visibility Wind Dir Wind Speed Gust Speed Precip Events Conditions
12:15 AM 24.8 °F 20.5 °F 19.4 °F 80% 30.10 in 10.0 mi South 3.5 mph - N/A   Overcast
12:34 AM 25.2 °F 19.5 °F 19.9 °F 81% 30.10 in 10.0 mi South 4.6 mph - N/A   Overcast
12:55 AM 25.3 °F 19.7 °F 20.3 °F 81% 30.10 in 10.0 mi SSW 4.6 mph - N/A   Overcast
1:14 AM 25.5 °F 18.7 °F 20.3 °F 81% 30.10 in 10.0 mi SW 5.8 mph - N/A   Overcast
1:34 AM 25.3 °F 19.7 °F 20.3 °F 81% 30.10 in 10.0 mi SW 4.6 mph - N/A   Overcast
1:55 AM 25.5 °F 17.8 °F 20.3 °F 81% 30.10 in 10.0 mi SW 6.9 mph - N/A   Overcast
2:14 AM 25.5 °F 17.8 °F 20.1 °F 80% 30.10 in 10.0 mi SW 6.9 mph - N/A   Overcast
2:34 AM 25.2 °F 13.9 °F 18.5 °F 76% 30.10 in 10.0 mi SW 12.7 mph - N/A   Overcast
2:55 AM 24.6 °F 13.2 °F 17.6 °F 75% 30.10 in 10.0 mi SW 12.7 mph - N/A   Overcast
3:14 AM 24.3 °F 16.3 °F 16.5 °F 72% 30.09 in 10.0 mi SSW 6.9 mph - N/A   Overcast
3:34 AM 23.9 °F 14.2 °F 16.7 °F 74% 30.08 in 10.0 mi SSW 9.2 mph - N/A   Overcast
3:55 AM 23.9 °F 15.0 °F 16.7 °F 74% 30.07 in 10.0 mi SSW 8.1 mph - N/A   Overcast
4:14 AM 23.7 °F 14.0 °F 16.3 °F 73% 30.06 in 10.0 mi South 9.2 mph - N/A   Overcast
4:35 AM 23.5 °F 11.8 °F 16.2 °F 73% 30.05 in 10.0 mi South 12.7 mph - N/A   Overcast
4:55 AM 23.0 °F 11.1 °F 14.7 °F 71% 30.04 in 10.0 mi South 12.7 mph 16.1 mph N/A Snow Light Snow
5:14 AM 22.8 °F 12.9 °F 14.0 °F 69% 30.04 in 10.0 mi South 9.2 mph - N/A   Overcast
5:35 AM 22.5 °F 9.9 °F 13.5 °F 68% 30.04 in 10.0 mi SSW 13.8 mph - N/A   Overcast
5:54 AM 22.1 °F 11.3 °F 13.1 °F 68% 30.04 in 10.0 mi SSW 10.4 mph 16.1 mph N/A Snow Light Snow
6:15 AM 21.6 °F 9.9 °F 12.0 °F 67% 30.03 in 10.0 mi South 11.5 mph - N/A   Overcast
6:34 AM 21.2 °F 10.9 °F 12.2 °F 68% 30.03 in 10.0 mi SSW 9.2 mph 16.1 mph N/A   Overcast
6:55 AM 21.2 °F 11.7 °F 12.7 °F 70% 30.02 in 10.0 mi South 8.1 mph - N/A   Overcast
7:15 AM 21.2 °F 10.9 °F 13.6 °F 73% 30.02 in 10.0 mi SSW 9.2 mph - N/A   Overcast
7:34 AM 21.2 °F 12.6 °F 14.0 °F 74% 30.01 in 10.0 mi South 6.9 mph - N/A   Overcast
7:55 AM 21.2 °F 12.6 °F 14.7 °F 76% 30.01 in 10.0 mi SSW 6.9 mph - N/A   Overcast
8:14 AM 21.7 °F 12.3 °F 15.4 °F 77% 30.02 in 10.0 mi SSW 8.1 mph - N/A   Overcast
8:34 AM 21.7 °F 11.5 °F 15.6 °F 77% 30.02 in 10.0 mi SSW 9.2 mph - N/A   Overcast
8:55 AM 22.1 °F 12.8 °F 15.6 °F 76% 30.02 in 10.0 mi SW 8.1 mph - N/A   Overcast
9:14 AM 22.1 °F 12.8 °F 15.6 °F 76% 30.02 in 10.0 mi SSW 8.1 mph - N/A   Overcast
9:35 AM 22.5 °F 12.4 °F 16.3 °F 77% 30.02 in 5.0 mi SW 9.2 mph - N/A Snow Light Snow
9:55 AM 22.5 °F 11.7 °F 16.5 °F 78% 30.03 in 7.0 mi SW 10.4 mph - N/A Snow Light Snow
10:14 AM 22.6 °F 12.6 °F 16.7 °F 78% 30.03 in 7.0 mi SW 9.2 mph - N/A Snow Light Snow
10:35 AM 22.6 °F 10.7 °F 16.3 °F 77% 30.03 in 7.0 mi SW 12.7 mph - N/A   Overcast
10:54 AM 23.0 °F 10.1 °F 16.7 °F 77% 30.02 in 10.0 mi SW 15.0 mph - N/A   Overcast
11:35 AM 23.7 °F 12.6 °F 17.8 °F 78% 30.02 in 7.0 mi SW 11.5 mph - N/A   Overcast
11:54 AM 23.9 °F 12.3 °F 18.5 °F 80% 30.01 in 7.0 mi SW 12.7 mph 18.4 mph N/A   Overcast
12:14 PM 24.4 °F 13.5 °F 19.4 °F 81% 30.01 in 7.0 mi WSW 11.5 mph - N/A   Overcast
12:35 PM 24.8 °F 14.0 °F 20.3 °F 83% 30.00 in 4.0 mi WSW 11.5 mph - N/A Snow Light Snow
12:54 PM 25.5 °F 16.2 °F 21.2 °F 84% 30.00 in 3.0 mi WSW 9.2 mph 18.4 mph N/A Snow Light Snow
1:14 PM 25.9 °F 16.0 °F 22.1 °F 86% 29.99 in 2.0 mi WSW 10.4 mph - N/A Snow Light Snow
1:35 PM 26.4 °F 16.6 °F 22.5 °F 85% 29.99 in 3.0 mi WSW 10.4 mph 16.1 mph N/A Snow Light Snow
1:54 PM 26.4 °F 16.0 °F 22.5 °F 85% 29.99 in 4.0 mi WSW 11.5 mph 19.6 mph N/A Snow Light Snow
2:15 PM 26.6 °F 17.5 °F 22.8 °F 86% 29.99 in 4.0 mi WSW 9.2 mph - N/A Snow Light Snow
2:35 PM 27.0 °F 17.3 °F 23.0 °F 85% 29.99 in 4.0 mi WSW 10.4 mph - N/A Snow Light Snow
2:54 PM 27.1 °F 18.9 °F 23.0 °F 84% 30.00 in 4.0 mi WSW 8.1 mph - N/A Snow Light Snow
3:15 PM 27.5 °F 20.2 °F 23.4 °F 84% 30.00 in 4.0 mi WSW 6.9 mph - N/A Snow Light Snow
3:35 PM 28.2 °F 18.9 °F 23.4 °F 82% 30.01 in 5.0 mi WSW 10.4 mph - N/A Snow Light Snow
3:54 PM 28.4 °F 19.7 °F 23.4 °F 81% 30.02 in 4.0 mi WSW 9.2 mph - N/A Snow Light Snow
4:34 PM 28.4 °F 19.1 °F 23.4 °F 81% 30.03 in 5.0 mi West 10.4 mph - N/A   Haze
4:54 PM 28.4 °F 19.1 °F 23.5 °F 82% 30.04 in 5.0 mi West 10.4 mph - N/A   Haze
5:14 PM 28.4 °F 18.5 °F 23.4 °F 81% 30.05 in 5.0 mi West 11.5 mph - N/A   Haze
5:34 PM 28.4 °F 18.5 °F 23.0 °F 80% 30.06 in 7.0 mi West 11.5 mph - N/A   Overcast
5:55 PM 28.4 °F 18.5 °F 22.6 °F 79% 30.07 in 7.0 mi West 11.5 mph - N/A   Overcast
6:14 PM 28.4 °F 18.5 °F 22.1 °F 77% 30.08 in 7.0 mi West 11.5 mph - N/A   Overcast
6:34 PM 28.4 °F 19.1 °F 22.1 °F 77% 30.08 in 7.0 mi West 10.4 mph - N/A   Overcast
6:55 PM 28.4 °F 19.1 °F 21.7 °F 76% 30.09 in 7.0 mi West 10.4 mph - N/A   Overcast
7:14 PM 28.4 °F 19.7 °F 21.9 °F 77% 30.10 in 10.0 mi West 9.2 mph 16.1 mph N/A   Overcast
7:34 PM 28.4 °F 17.5 °F 21.9 °F 77% 30.10 in 10.0 mi West 13.8 mph - N/A   Overcast
7:55 PM 28.4 °F 18.5 °F 21.9 °F 77% 30.09 in 10.0 mi West 11.5 mph - N/A   Overcast
8:14 PM 28.4 °F 18.0 °F 21.7 °F 76% 30.10 in 10.0 mi West 12.7 mph 18.4 mph N/A   Overcast
8:35 PM 28.4 °F 17.5 °F 21.7 °F 76% 30.10 in 10.0 mi West 13.8 mph - N/A   Overcast
8:54 PM 28.4 °F 19.1 °F 21.6 °F 76% 30.10 in 10.0 mi West 10.4 mph - N/A   Overcast
9:14 PM 28.4 °F 19.7 °F 21.6 °F 76% 30.10 in 10.0 mi WSW 9.2 mph 17.3 mph N/A   Overcast
9:35 PM 28.4 °F 19.7 °F 21.2 °F 74% 30.09 in 10.0 mi WSW 9.2 mph - N/A   Overcast
9:54 PM 28.4 °F 19.1 °F 21.2 °F 74% 30.08 in 10.0 mi WSW 10.4 mph 18.4 mph N/A   Overcast
10:15 PM 28.4 °F 18.0 °F 21.2 °F 74% 30.08 in 10.0 mi WSW 12.7 mph 17.3 mph N/A   Overcast
10:35 PM 28.8 °F 17.9 °F 20.3 °F 71% 30.08 in 10.0 mi WSW 13.8 mph 18.4 mph N/A   Overcast
10:54 PM 28.6 °F 19.9 °F 20.8 °F 73% 30.07 in 10.0 mi WSW 9.2 mph - N/A   Overcast
11:15 PM 28.4 °F 20.4 °F 21.2 °F 74% 30.07 in 10.0 mi WSW 8.1 mph - N/A   Overcast
11:34 PM 28.4 °F 18.5 °F 20.8 °F 73% 30.07 in 10.0 mi WSW 11.5 mph - N/A   Overcast
11:54 PM 28.8 °F 18.4 °F 20.3 °F 71% 30.07 in 10.0 mi WSW 12.7 mph 19.6 mph N/A   Overcast